Вернуться в каталог

STARLINK-36984

АктивенСвязьVLEO
NORAD 68168·PAYLOAD·🇺🇸 United States

Запущен Mar 14, 2026 с Vandenberg Space Force Base

Loading…

Ближайшие Пролёты (ближайшие 24 часа)

TLE

СвежийSource: CelesTrak SupGP

Эпоха: Sep 14, 2026, 21:25 UTC

1 68168C 26050B   26257.89284722 -.00162410  00000+0 -47995-2 0  2574
2 68168  53.1576 103.7928 0001280  84.6945 124.0670 15.34465007    11

Отслеживайте STARLINK-36984 в реальном времени с AllMySat

Download on the App Store